Voltar ao catálogo

STARLINK-34384

AtivoComunicaçõesVLEO
NORAD 64312·PAYLOAD·🇺🇸 United States

Lançado Jun 8, 2025 de Vandenberg Space Force Base

Loading…

Próximas Passagens (próximas 24 horas)

TLE

AtualizadoSource: CelesTrak SupGP

Época: Sep 14, 2026, 21:35 UTC

1 64312C 25123X   26257.89979167  .00007070  00000+0  24600-3 0  2572
2 64312  70.0001  75.7625 0003158 272.7875   2.6835 15.29566678    13

Acompanhe STARLINK-34384 em tempo real com AllMySat

Download on the App Store